Total_Precipitation_Accumulation
0.13 0.12 0.10 0.13 0.13 0.12 0.08 0.03 0.01 0.01 0.01 0.01 0.02 0.02 0.03 0.04 0.05 0.07 0.04 0.02 0.02 0.02 0.06 0.13 0.19 0.23 0.24 0.22 0.18 0.14 0.13 0.15 0.20 0.25 0.25 0.24 0.23 0.22 0.22 0.23 0.25 0.28 0.31 0.29 0.26 0.24 0.17 0.12 0.08
0.16 0.19 0.24 0.25 0.15 0.12 0.06 0.02 0.02 0.02 0.02 0.02 0.02 0.04 0.06 0.06 0.08 0.06 0.05 0.03 0.03 0.05 0.07 0.11 0.20 0.28 0.27 0.24 0.19 0.15 0.15 0.18 0.21 0.25 0.28 0.28 0.26 0.24 0.25 0.21 0.20 0.22 0.20 0.17 0.15 0.12 0.08 0.05 0.03
0.25 0.32 0.44 0.32 0.13 0.08 0.05 0.02 0.03 0.03 0.03 0.03 0.03 0.05 0.10 0.12 0.12 0.09 0.06 0.05 0.05 0.08 0.10 0.15 0.22 0.32 0.31 0.26 0.20 0.17 0.18 0.20 0.25 0.27 0.29 0.33 0.32 0.30 0.29 0.21 0.16 0.16 0.12 0.10 0.09 0.06 0.04 0.02 0.01
0.39 0.59 0.57 0.36 0.13 0.04 0.03 0.03 0.04 0.05 0.04 0.04 0.04 0.08 0.13 0.13 0.14 0.12 0.09 0.08 0.09 0.11 0.13 0.20 0.26 0.35 0.37 0.30 0.24 0.20 0.19 0.22 0.27 0.30 0.31 0.37 0.40 0.39 0.31 0.19 0.14 0.11 0.08 0.07 0.06 0.05 0.03 0.01 0.01
0.63 0.76 0.56 0.31 0.13 0.05 0.03 0.04 0.05 0.06 0.06 0.06 0.06 0.13 0.17 0.15 0.17 0.18 0.16 0.13 0.12 0.15 0.20 0.27 0.31 0.36 0.40 0.38 0.33 0.27 0.25 0.26 0.28 0.31 0.32 0.36 0.42 0.45 0.37 0.19 0.12 0.09 0.07 0.06 0.05 0.06 0.03 0.01 0.01
0.95 0.80 0.58 0.29 0.10 0.07 0.04 0.04 0.06 0.08 0.08 0.10 0.12 0.21 0.28 0.26 0.32 0.34 0.29 0.24 0.21 0.20 0.25 0.37 0.45 0.42 0.42 0.45 0.43 0.37 0.34 0.34 0.34 0.34 0.35 0.38 0.41 0.43 0.41 0.24 0.13 0.08 0.07 0.07 0.06 0.05 0.04 0.02 0.01
0.96 0.74 0.47 0.25 0.10 0.08 0.06 0.06 0.08 0.10 0.13 0.14 0.15 0.28 0.39 0.44 0.48 0.51 0.49 0.45 0.39 0.34 0.33 0.38 0.49 0.54 0.51 0.48 0.49 0.50 0.45 0.41 0.40 0.41 0.42 0.37 0.35 0.38 0.37 0.26 0.15 0.11 0.09 0.09 0.09 0.08 0.07 0.03 0.02
0.89 0.84 0.45 0.25 0.14 0.09 0.07 0.08 0.10 0.13 0.17 0.17 0.21 0.29 0.42 0.50 0.57 0.70 0.75 0.73 0.63 0.56 0.54 0.45 0.46 0.52 0.57 0.57 0.49 0.49 0.48 0.46 0.45 0.42 0.38 0.31 0.28 0.30 0.29 0.20 0.14 0.12 0.11 0.10 0.09 0.08 0.07 0.04 0.02
0.86 0.94 0.49 0.23 0.16 0.13 0.11 0.11 0.11 0.14 0.20 0.23 0.26 0.29 0.40 0.56 0.69 0.85 0.96 0.99 0.87 0.77 0.75 0.64 0.53 0.50 0.51 0.57 0.52 0.54 0.51 0.45 0.43 0.40 0.33 0.29 0.31 0.30 0.24 0.15 0.11 0.11 0.12 0.11 0.09 0.07 0.06 0.03 0.02
0.93 0.78 0.38 0.20 0.17 0.18 0.19 0.17 0.16 0.23 0.28 0.33 0.38 0.42 0.53 0.73 0.88 0.91 0.97 1.01 0.92 0.79 0.76 0.74 0.68 0.60 0.56 0.55 0.52 0.55 0.52 0.48 0.41 0.36 0.32 0.32 0.31 0.29 0.24 0.18 0.12 0.12 0.12 0.12 0.10 0.08 0.06 0.03 0.01
0.80 0.54 0.35 0.26 0.24 0.24 0.28 0.26 0.22 0.28 0.31 0.28 0.39 0.50 0.64 0.85 0.96 0.97 0.98 1.08 1.08 0.95 0.83 0.75 0.73 0.74 0.68 0.60 0.55 0.51 0.45 0.44 0.44 0.38 0.34 0.31 0.33 0.33 0.31 0.22 0.16 0.14 0.13 0.13 0.12 0.09 0.05 0.02 0.02
0.68 0.46 0.43 0.35 0.31 0.31 0.33 0.32 0.29 0.27 0.27 0.25 0.33 0.52 0.69 0.90 0.95 1.00 1.01 1.12 1.25 1.20 1.02 0.90 0.84 0.80 0.77 0.69 0.58 0.52 0.44 0.38 0.38 0.38 0.38 0.37 0.32 0.28 0.27 0.22 0.15 0.13 0.12 0.11 0.10 0.07 0.05 0.04 0.03
0.67 0.52 0.47 0.43 0.37 0.36 0.37 0.36 0.37 0.30 0.30 0.34 0.41 0.59 0.80 1.00 1.16 1.18 1.20 1.25 1.33 1.32 1.22 1.07 0.99 0.92 0.88 0.83 0.70 0.55 0.49 0.40 0.35 0.37 0.39 0.38 0.32 0.28 0.26 0.21 0.18 0.15 0.12 0.11 0.11 0.08 0.07 0.06 0.06
0.64 0.57 0.51 0.50 0.44 0.41 0.49 0.41 0.44 0.43 0.38 0.44 0.52 0.63 0.83 1.01 1.28 1.34 1.38 1.33 1.26 1.29 1.31 1.24 1.13 1.02 0.94 0.88 0.76 0.65 0.56 0.49 0.43 0.40 0.38 0.38 0.35 0.33 0.31 0.26 0.21 0.18 0.16 0.16 0.16 0.15 0.12 0.08 0.05
0.66 0.69 0.61 0.57 0.54 0.49 0.55 0.57 0.43 0.42 0.44 0.46 0.50 0.62 0.86 1.03 1.20 1.30 1.38 1.44 1.34 1.36 1.42 1.37 1.31 1.29 1.10 0.97 0.90 0.78 0.66 0.58 0.51 0.47 0.44 0.39 0.35 0.36 0.34 0.30 0.26 0.23 0.22 0.22 0.21 0.20 0.20 0.17 0.11
0.86 0.87 0.73 0.55 0.56 0.55 0.62 0.60 0.38 0.36 0.42 0.44 0.44 0.56 0.78 1.02 1.19 1.25 1.34 1.46 1.51 1.50 1.51 1.51 1.37 1.42 1.39 1.23 1.08 0.94 0.78 0.69 0.61 0.56 0.52 0.49 0.42 0.41 0.42 0.39 0.34 0.31 0.29 0.28 0.27 0.24 0.21 0.18 0.15
0.97 0.79 0.61 0.52 0.48 0.56 0.63 0.59 0.40 0.32 0.36 0.38 0.42 0.50 0.61 0.81 1.10 1.22 1.22 1.34 1.53 1.57 1.55 1.64 1.55 1.49 1.55 1.52 1.36 1.25 1.11 0.92 0.82 0.76 0.67 0.61 0.57 0.55 0.52 0.46 0.44 0.44 0.43 0.38 0.34 0.29 0.25 0.24 0.21
0.61 0.54 0.49 0.48 0.42 0.51 0.57 0.55 0.48 0.36 0.33 0.37 0.41 0.47 0.53 0.62 0.85 0.99 1.06 1.23 1.47 1.64 1.69 1.74 1.81 1.74 1.79 1.90 1.79 1.58 1.41 1.26 1.12 0.99 0.96 0.92 0.79 0.73 0.67 0.59 0.55 0.53 0.52 0.48 0.44 0.37 0.32 0.29 0.30
0.41 0.45 0.41 0.37 0.34 0.44 0.46 0.47 0.50 0.46 0.39 0.36 0.39 0.43 0.48 0.54 0.67 0.82 0.94 1.15 1.34 1.48 1.64 1.65 1.75 1.86 1.93 1.95 1.81 1.61 1.45 1.38 1.32 1.22 1.19 1.13 1.04 0.95 0.84 0.74 0.69 0.64 0.58 0.53 0.50 0.49 0.46 0.42 0.41
0.49 0.52 0.44 0.39 0.34 0.40 0.42 0.42 0.48 0.52 0.46 0.39 0.34 0.35 0.40 0.52 0.57 0.65 0.78 0.98 1.14 1.26 1.35 1.48 1.56 1.67 1.76 1.79 1.76 1.73 1.76 1.65 1.51 1.38 1.29 1.24 1.21 1.13 1.01 0.91 0.84 0.76 0.69 0.63 0.60 0.64 0.61 0.56 0.55
0.56 0.52 0.45 0.41 0.37 0.42 0.42 0.44 0.45 0.47 0.47 0.44 0.39 0.39 0.41 0.53 0.53 0.56 0.63 0.83 0.94 1.03 1.14 1.24 1.38 1.47 1.50 1.67 1.82 1.85 1.87 1.79 1.57 1.36 1.22 1.26 1.35 1.34 1.20 1.09 1.06 1.00 0.93 0.83 0.79 0.80 0.79 0.73 0.70
0.64 0.43 0.41 0.41 0.54 0.60 0.43 0.54 0.44 0.42 0.44 0.48 0.46 0.46 0.51 0.56 0.58 0.60 0.63 0.74 0.80 0.83 0.97 1.09 1.22 1.33 1.36 1.51 1.58 1.53 1.42 1.37 1.30 1.26 1.28 1.33 1.38 1.42 1.37 1.32 1.24 1.18 1.15 1.06 1.06 1.09 1.05 0.99 0.87
0.55 0.41 0.48 0.51 0.57 0.58 0.39 0.47 0.47 0.40 0.50 0.53 0.51 0.53 0.57 0.54 0.53 0.61 0.63 0.66 0.71 0.71 0.76 0.90 1.09 1.17 1.20 1.28 1.35 1.44 1.39 1.32 1.33 1.32 1.29 1.24 1.22 1.31 1.37 1.38 1.35 1.22 1.13 1.08 1.10 1.11 1.14 1.09 1.03
0.55 0.64 0.71 0.70 0.83 0.81 0.37 0.39 0.44 0.43 0.52 0.52 0.46 0.50 0.52 0.51 0.53 0.56 0.52 0.55 0.66 0.64 0.61 0.71 0.86 1.05 1.13 1.17 1.23 1.30 1.29 1.22 1.20 1.24 1.25 1.26 1.19 1.14 1.16 1.23 1.23 1.24 1.20 1.15 1.16 1.21 1.24 1.24 1.20
0.84 1.20 1.47 1.31 1.13 0.63 0.24 0.29 0.41 0.41 0.44 0.48 0.46 0.44 0.46 0.48 0.49 0.52 0.52 0.58 0.62 0.60 0.56 0.57 0.66 0.84 1.00 1.03 1.04 1.10 1.20 1.20 1.12 1.13 1.18 1.20 1.16 1.09 1.09 1.16 1.18 1.20 1.21 1.22 1.23 1.23 1.19 1.19 1.17
0.85 1.03 1.19 0.91 0.59 0.32 0.20 0.27 0.34 0.34 0.37 0.37 0.33 0.32 0.38 0.42 0.43 0.46 0.49 0.50 0.48 0.47 0.51 0.54 0.59 0.65 0.72 0.77 0.84 0.92 1.00 1.08 1.04 1.00 1.03 1.02 0.98 1.00 1.03 1.08 1.12 1.15 1.18 1.19 1.19 1.17 1.14 1.11 1.09
0.82 0.80 0.67 0.77 0.52 0.34 0.21 0.21 0.24 0.25 0.26 0.27 0.27 0.28 0.32 0.33 0.32 0.34 0.36 0.37 0.34 0.34 0.39 0.44 0.46 0.50 0.57 0.59 0.64 0.74 0.79 0.88 0.97 0.98 0.98 0.97 0.95 0.91 0.91 0.92 0.94 0.98 1.02 1.03 1.07 1.08 1.03 0.99 0.96
0.78 0.67 0.75 1.12 0.82 0.46 0.21 0.17 0.24 0.25 0.24 0.26 0.26 0.26 0.25 0.24 0.26 0.28 0.31 0.30 0.27 0.26 0.28 0.29 0.35 0.45 0.51 0.48 0.51 0.59 0.67 0.72 0.79 0.86 0.89 0.85 0.83 0.80 0.78 0.79 0.76 0.76 0.81 0.87 0.93 0.94 0.94 0.94 0.89
0.75 0.84 0.86 0.87 0.66 0.56 0.35 0.23 0.22 0.22 0.23 0.25 0.24 0.22 0.21 0.20 0.23 0.24 0.23 0.22 0.23 0.21 0.21 0.24 0.29 0.36 0.41 0.42 0.44 0.47 0.52 0.57 0.62 0.66 0.71 0.69 0.70 0.70 0.69 0.71 0.72 0.70 0.67 0.71 0.78 0.83 0.85 0.87 0.84
0.61 0.63 0.75 0.99 0.70 0.55 0.45 0.27 0.18 0.18 0.19 0.21 0.21 0.21 0.22 0.22 0.24 0.21 0.18 0.17 0.18 0.19 0.20 0.22 0.26 0.31 0.34 0.36 0.39 0.41 0.43 0.45 0.49 0.55 0.56 0.56 0.58 0.58 0.57 0.56 0.58 0.59 0.59 0.60 0.65 0.71 0.74 0.76 0.78